Location: Helsinki
(60.1699°N, 24.9384°E)
Time: 21:25:49
(UTC+02:00)

Transit 2A Rocket - Pass Details

Date: 28 September 2023
Orbit: 593 x 903 km, 66.7° (Epoch: 29 November)

Event Time Altitude Azimuth Distance (km) Brightness Sun altitude
Rises 00:18:40 0° 308° (NW) 2,982 8.8 -30.8°
Reaches altitude 10° 00:21:30 10° 292° (WNW) 2,022 7.6 -30.8°
Enters shadow 00:22:31 14° 281° (WNW) 1,743 7.1 -30.9°
Maximum altitude 00:24:46 20° 245° (WSW) 1,432 - -30.9°
Drops below altitude 10° 00:27:56 10° 198° (SSW) 1,942 - -31.0°
Sets 00:30:36 0° 181° (S) 2,827 - -31.1°
